Regional Weather Roundup
Issued by NWS

Home | Current Version | Previous Version | Graphics & Text | Print | Product List | Glossary On
Versions: 1 2 3 4 5 6 7 8 9 10 11 12 13 14 15 16 17 18 19 20 21 22 23 24 25 26 27 28 29 30 31 32 33 34 35 36 37 38 39 40 41 42 43 44 45 46 47 48 49 50
000
ASUS43 KLSX 030159
RWRMO

WEATHER SUMMARY FOR MISSOURI
NATIONAL WEATHER SERVICE SPRINGFIELD MO
900 PM CDT SAT MAY 02 2015

NOTE: "FAIR" INDICATES FEW OR NO CLOUDS BELOW 12,000 FEET WITH NO
       SIGNIFICANT WEATHER AND/OR OBSTRUCTIONS TO VISIBILITY.
       CURRENT SKY AND/OR WEATHER CONDITIONS ARE NOT AVAILABLE FOR
       CHILLICOTHE AND FARMINGTON.

MOZ001>031-035>038-043-044-053-054-030300-
...NORTHERN AND WESTERN MISSOURI...

CITY           SKY/WX    TMP DP  RH WIND       PRES   REMARKS
KANSAS CTY INT PTCLDY    64  53  67 S10       29.89S
KANSAS C DTWN  CLEAR     71  51  49 S12       29.89R
LEE`S SUMMIT   CLEAR     69  51  52 S7        29.92R
ST JOSEPH      CLEAR     68  54  60 S12       29.86F
CHILLICOTHE      N/A     64  56  75 SE5       29.93R
KIRKSVILLE     MOCLDY    58  54  86 SE6       29.95S

$$
MOZ066>068-077>081-088>096-101>105-030300-
...SOUTHWEST MISSOURI...

CITY           SKY/WX    TMP DP  RH WIND       PRES   REMARKS
SPRINGFIELD    CLEAR     63  51  65 S6        29.98R
JOPLIN         CLEAR     65  52  62 S8        29.96R

$$
MOZ032>034-039>042-045>050-055>058-069>072-030300-
...CENTRAL MISSOURI...

CITY           SKY/WX    TMP DP  RH WIND       PRES   REMARKS
COLUMBIA       CLOUDY    68  48  48 SE6       29.95S
JEFFERSON CITY CLOUDY    70  49  47 SE7       29.95R
ROLLA          CLOUDY    67  44  43 S6        29.97R
SEDALIA        PTCLDY    65  51  60 S6        29.96S
OSAGE BEACH    MOCLDY    70  45  40 S5        29.97S

$$
MOZ051-052-059>065-030300-
...EAST CENTRAL MISSOURI...

CITY           SKY/WX    TMP DP  RH WIND       PRES   REMARKS
ST LOUIS INTL  MOCLDY    72  43  35 E8        30.00R
SPIRIT OF STL  MOCLDY    67  47  48 E5        29.97R
ST CHARLES     CLOUDY    69  45  41 E9        29.98R

$$
MOZ072>076-082>087-097>100-106>115-030300-
...SOUTH CENTRAL AND SOUTHEAST MISSOURI...

CITY           SKY/WX    TMP DP  RH WIND       PRES   REMARKS
CAPE GIRARDEAU PTCLDY    60  48  64 S7        30.03R
FARMINGTON     PTCLDY    64  43  45 S5        30.05S
POPLAR BLUFF   CLEAR     64  47  53 CALM      30.02R
WEST PLAINS    CLOUDY    67  41  38 SE3       30.03R

$$


USA.gov is the U.S. government's official web portal to all federal, state and local government web resources and services.